Tracking 27422 objects as of 31-May-2023
HD Live streaming from Space Station
objects crossing your sky now

STARLINK-5290

Track STARLINK-5290 now!
10-day predictions
STARLINK-5290 is classified as:


NORAD ID: 54157
Int'l Code: 2022-141A
Perigee: 546.5 km
Apogee: 547.2 km
Inclination: 53.2 °
Period: 95.4 minutes
Semi major axis: 6917 km
RCS: Unknown
Launch date: October 28, 2022
Source: United States (US)
Launch site: AIR FORCE WESTERN TEST RANGE (AFWTR)
Your satellite tracking list
Your tracking list is empty




NASA's NSSDC Master Catalog

Two Line Element Set (TLE):
1 54157U 22141A   23150.66797080 -.00000017  00000-0  16986-4 0  9999
2 54157  53.2155 246.2965 0000512  74.5249 285.5800 15.08845095 32635
Source of the keplerian elements: AFSPC